Find Starlink 33584

NORAD ID: 62761 Int'l Des: 2025-015 Owner: SPXS Country: US Constellation: starlink operational
LEOCIRCULAR

リアルタイム位置

3D地球を読み込み中...

Starlink 33584について

説明を読み込み中...

次回通過

Passes for default location (London). Set your location on the main map for personalized predictions.

高度履歴

Loading altitude history...

軌道要素

1 62761U 25015D 26127.28622145 .00021448 00000-0 73403-3 0 9992
2 62761 53.1586 50.2061 0001103 92.2056 267.9071 15.30207096 73459
Epoch: May 7, 2026 • Age: 5 hours

現在のステータス

高度 480.5 km
速度 7.63 km/s
衛星直下点 51.15°N, 73.02°E
打ち上げ日 Jan 21, 2025
運用期間 1.2 years
タイプ internet

技術仕様

分類 Payload
質量 575.00 kg
乾燥質量 530.00 kg
総質量 575.00 kg
長さ 0.30 m
直径 4.10 m
スパン 29.00 m
形状 Box + pan
製造者 SPXS
バスタイプ Starlink V2MO
フェーズステータス In Orbit
所有者/国 SPXS/US

Most Searched